Weather History for Sierra Vista, AZ

Change the Weather History Date:

Monday, September 19, 2011

  Actual Average Record
Temperature  
Mean Temperature 76 °F -  
Max Temperature 89 °F 84 °F 95 °F (1997)
Min Temperature 63 °F 64 °F 50 °F (1993)
Cooling Degree Days 11    
Growing Degree Days 26 (Base 50)    
Moisture  
Dew Point 41 °F    
Average Humidity 30    
Maximum Humidity 43    
Minimum Humidity 17    
Precipitation  
Precipitation 0.00 in - - ()
Sea Level Pressure  
Sea Level Pressure 29.97 in    
Wind  
Wind Speed 6 mph (SW)    
Max Wind Speed 10 mph    
Max Gust Speed 18 mph    
Visibility 10 miles    
Events      
Averages and records for this station are not official NWS values.
T = Trace of Precipitation, MM = Missing Value Source: NWS Daily Summary

Daily Weather History Graph

Daily Weather History Graph

Search for Another Location

Airport:

Trip Planner

Search our weather history database for the weather conditions in past years. The results will help you decide how hot, cold, wet, or windy it might be!

Date:

Astronomy

Sep. 19, 2011 Rise Set
Actual Time 6:07 AM MST 6:22 PM MST
Civil Twilight 5:43 AM MST 6:46 PM MST
Nautical Twilight 5:14 AM MST 7:14 PM MST
Astronomical Twilight 4:46 AM MST 7:43 PM MST
Moon 10:57 PM MST (9/19) 12:35 PM MST (9/19)
Length of Visible Light 13h 03m
Length of Day
12h 14m
Waning Gibbous, 58% of the Moon is Illuminated
Sep 19
Waning Gibbous
Sep 20
Last Quarter
Sep 27
New
Oct 3
First Quarter
Oct 11
Full

Hourly Weather History & Observations

Time (MST) Temp. Dew Point Humidity Pressure Visibility Wind Dir Wind Speed Gust Speed Precip Events Conditions
12:56 AM 66.9 °F 39.9 °F 37% 30.01 in 10.0 mi SSW 8.1 mph - N/A   Clear
1:56 AM 66.0 °F 39.9 °F 38% 30.00 in 10.0 mi SW 6.9 mph - N/A   Clear
2:56 AM 64.9 °F 41.0 °F 42% 30.00 in 10.0 mi SW 3.5 mph - N/A   Clear
3:56 AM 64.9 °F 39.9 °F 40% 29.99 in 10.0 mi WSW 3.5 mph - N/A   Clear
4:56 AM 63.0 °F 39.9 °F 43% 30.00 in 10.0 mi WSW 8.1 mph - N/A   Clear
5:55 AM 64.4 °F 39.2 °F 40% 30.02 in 10.0 mi WSW 3.5 mph - N/A   Clear
6:55 AM 66.2 °F 42.8 °F 43% 30.04 in 10.0 mi Calm Calm - N/A   Clear
7:55 AM 73.4 °F 41.0 °F 31% 30.04 in 10.0 mi Calm Calm - N/A   Clear
8:55 AM 75.2 °F 42.8 °F 31% 30.04 in 10.0 mi Variable 4.6 mph - N/A   Clear
9:55 AM 80.6 °F 39.2 °F 23% 30.04 in 10.0 mi Variable 2.3 mph - N/A   Clear
10:55 AM 84.2 °F 41.0 °F 22% 30.02 in 10.0 mi SE 9.2 mph - N/A   Clear
11:55 AM 84.2 °F 42.8 °F 23% 30.00 in 10.0 mi SE 9.2 mph - N/A   Partly Cloudy
12:55 PM 87.8 °F 42.8 °F 21% 29.96 in 10.0 mi Variable 4.6 mph 18.4 mph N/A   Partly Cloudy
1:55 PM 89.6 °F 41.0 °F 18% 29.94 in 10.0 mi South 5.8 mph - N/A   Partly Cloudy
2:55 PM 87.8 °F 39.2 °F 18% 29.91 in 10.0 mi WSW 3.5 mph - N/A   Scattered Clouds
3:55 PM 89.6 °F 39.2 °F 17% 29.89 in 10.0 mi Variable 4.6 mph - N/A   Scattered Clouds
4:55 PM 87.8 °F 41.0 °F 19% 29.90 in 10.0 mi Variable 6.9 mph - N/A   Scattered Clouds
5:55 PM 84.2 °F 42.8 °F 23% 29.90 in 10.0 mi Variable 5.8 mph - N/A   Partly Cloudy
6:55 PM 78.8 °F 44.6 °F 30% 29.93 in 10.0 mi Variable 5.8 mph - N/A   Partly Cloudy
7:55 PM 75.2 °F 42.8 °F 31% 29.93 in 10.0 mi SW 4.6 mph - N/A   Partly Cloudy
8:55 PM 73.4 °F 42.8 °F 33% 29.94 in 10.0 mi SW 5.8 mph - N/A   Clear
9:55 PM 73.4 °F 41.0 °F 31% 29.94 in 10.0 mi SW 8.1 mph - N/A   Clear
10:55 PM 73.4 °F 39.2 °F 29% 29.93 in 10.0 mi SW 8.1 mph - N/A   Clear
11:56 PM 72.0 °F 37.9 °F 29% 29.93 in 10.0 mi SW 10.4 mph - N/A   Clear